Home > Time Zones > World Clock > Weather > U.S.A. > Nome > Past weeks

Flag for U.S.A. Weather past 2 weeks in Nome, Alaska, U.S.A.

Now
37 °F

More clouds than sun.


Feels Like: 30 °F
Forecast: 26 / 33 °F
Wind: 10 mph from North

Location: Nome Airport


UV Index: 0 (Low)

Visibility: 10 mi


Pressure: 29.78 "Hg

Humidity: 65%

Dew point: 26 °F

Location of NomeLocation

Historic Weather in Nome

°F

Nome temperature yesterday

Maximum temperature yesterday: 35 °F (at 7:53 AM)
Minimum temperature yesterday: 29 °F (at 11:53 PM)
Average temperature yesterday: 32 °F

Past Weeks' High & Low Weather Summary

 TemperatureHumidityPressure
High40 °F (Apr 15, 5:53 PM)100% (Apr 12, 10:53 PM)30.19 "Hg (Apr 12, 10:53 PM)
Low-4 °F (Apr 8, 4:53 AM)36% (Apr 3, 1:53 PM)29.59 "Hg (Apr 3, 10:53 PM)
Average20 °F71%29.87 "Hg
* Reported Mar 31 7:53 PM — Apr 15 7:53 PM, Nome, Weather by CustomWeather, © 2014

Note: Actual official high and low records may vary slightly from our data, if they occured in-between our weather recording intervals... More about our weather records

Advertising

Historic Weather Conditions — Data for Previous 24 hours

 ConditionsComfort  
Time TempWeatherWind HumidityBarometerVisibility
7:53 PM
Apr 15
38 °FMore clouds than sun.9 mph68%29.79 "Hg10 mi
6:53 PM39 °FMore clouds than sun.7 mph62%29.80 "Hg10 mi
5:53 PM40 °FMore clouds than sun.7 mph60%29.81 "Hg10 mi
4:53 PM39 °FMore clouds than sun.8 mph60%29.81 "Hg10 mi
2:53 PM37 °FPartly sunny.13 mph70%29.85 "Hg10 mi
1:53 PM33 °FScattered clouds.3 mph88%29.84 "Hg10 mi
12:53 PM30 °FPassing clouds.No wind92%29.86 "Hg10 mi
12:02 PM27 °FIce fog.6 mph100%29.87 "Hg1 mi
11:53 AM27 °FIce fog.6 mph96%29.87 "Hg1 mi
10:53 AM26 °FIce fog.6 mph96%29.86 "Hg1 mi
9:53 AM25 °FIce fog.5 mph100%29.87 "Hg0 mi
8:53 AM25 °FIce fog.3 mph100%29.87 "Hg0 mi
7:53 AM26 °FIce fog.No wind100%29.87 "Hg1 mi
6:53 AM27 °FIce fog.9 mph100%29.87 "Hg1 mi
5:53 AM27 °FIce fog.No wind100%29.87 "Hg1 mi
4:53 AM27 °FIce fog.5 mph100%29.86 "Hg1 mi
3:53 AM28 °FIce fog.No wind100%29.86 "Hg4 mi
2:53 AM28 °FIce fog.3 mph100%29.86 "Hg1 mi
1:53 AM28 °FIce fog.7 mph100%29.84 "Hg0 mi
1:04 AM28 °FIce fog.9 mph100%29.83 "Hg2 mi
12:53 AM28 °FLow clouds.6 mph100%29.83 "Hg7 mi
11:53 PM
Apr 14
29 °FLow clouds.8 mph96%29.83 "Hg10 mi
10:53 PM30 °FScattered clouds.15 mph96%29.79 "Hg10 mi
9:53 PM30 °FScattered clouds.14 mph92%29.78 "Hg10 mi
Weather by CustomWeather, © 2014

See weather overview